Saipan, MP

7:20 AM ChST on February 26, 2017 (GMT +1000)
Saipan International

Weather History for PGSN - January, 2014

Change the Weather History Date:

Monday, January 20, 2014

  Actual Average Record
Temperature  
Mean Temperature 78 °F -  
Max Temperature 80 °F 82 °F 96 °F (2015)
Min Temperature 75 °F 74 °F 73 °F (2000)
Cooling Degree Days 12    
Growing Degree Days 28 (Base 50)    
Moisture  
Dew Point 73 °F    
Average Humidity 87    
Maximum Humidity 100    
Minimum Humidity 74    
Precipitation  
Precipitation 0.08 in - - ()
Sea Level Pressure  
Sea Level Pressure 29.92 in    
Wind  
Wind Speed 16 mph (NE)    
Max Wind Speed 23 mph    
Max Gust Speed 32 mph    
Visibility 8 miles    
Events Rain    
Averages and records for this station are not official NWS values.
T = Trace of Precipitation, MM = Missing Value Source: NWS Daily Summary

Daily Weather History Graph

Daily Weather History Graph

Search for Another Location

Airport or City:

Trip Planner

Search our weather history database for the weather conditions in past years. The results will help you decide how hot, cold, wet, or windy it might be!

Date:

Astronomy

Jan. 20, 2014 Rise Set
Actual Time 6:47 AM ChST 6:09 PM ChST
Civil Twilight 6:24 AM ChST 6:31 PM ChST
Nautical Twilight 5:58 AM ChST 6:58 PM ChST
Astronomical Twilight 5:31 AM ChST 7:24 PM ChST
Moon 9:22 PM ChST (1/20) 9:06 AM ChST (1/20)
Length of Visible Light 12h 07m
Length of Day
11h 21m
Waning Gibbous, 87% of the Moon is Illuminated
Jan 20
Waning Gibbous
Jan 24
Last Quarter
Jan 31
New
Feb 7
First Quarter
Feb 15
Full

Hourly Weather History & Observations

Time (ChST) Temp. Heat Index Dew Point Humidity Pressure Visibility Wind Dir Wind Speed Gust Speed Precip Events Conditions
12:54 AM 77.0 °F - 70.0 °F 79% 29.97 in 10.0 mi North 11.5 mph - N/A   Clear
1:54 AM 75.9 °F - 70.0 °F 82% 29.95 in 10.0 mi NNE 9.2 mph - N/A   Partly Cloudy
2:54 AM 77.0 °F - 72.0 °F 84% 29.94 in 10.0 mi NNE 17.3 mph - N/A   Scattered Clouds
3:54 AM 75.9 °F - 71.1 °F 85% 29.93 in 10.0 mi NNE 12.7 mph 24.2 mph N/A   Partly Cloudy
4:54 AM 75.9 °F - 71.1 °F 85% 29.94 in 10.0 mi North 13.8 mph 20.7 mph N/A   Overcast
5:54 AM 75.0 °F - 71.1 °F 87% 29.95 in 7.0 mi NNE 16.1 mph 25.3 mph 0.01 in Rain Light Rain
6:54 AM 75.9 °F - 71.1 °F 85% 29.95 in 10.0 mi NNE 16.1 mph 24.2 mph 0.00 in   Mostly Cloudy
7:54 AM 75.9 °F - 72.0 °F 87% 29.97 in 10.0 mi NNE 17.3 mph 27.6 mph 0.00 in   Mostly Cloudy
8:54 AM 78.1 °F - 71.1 °F 79% 29.98 in 10.0 mi NE 23.0 mph 32.2 mph 0.00 in   Mostly Cloudy
9:54 AM 80.1 °F 84.2 °F 73.0 °F 79% 29.98 in 10.0 mi NE 19.6 mph 26.5 mph 0.00 in   Mostly Cloudy
10:48 AM 80.6 °F 84.6 °F 71.6 °F 74% 29.91 in 10.0 mi NE 18.4 mph 26.5 mph N/A   Overcast
10:54 AM 79.0 °F - 72.0 °F 79% 29.97 in 9.0 mi NE 18.4 mph 28.8 mph N/A   Overcast
11:54 AM 77.0 °F - 73.0 °F 88% 29.94 in 8.0 mi NNE 16.1 mph 25.3 mph 0.00 in Rain Light Rain
12:26 PM 77.0 °F - 73.4 °F 89% 29.86 in 6.0 mi NE 19.6 mph - 0.02 in Rain Light Rain
12:34 PM 77.0 °F - 73.4 °F 89% 29.86 in 6.0 mi NNE 18.4 mph 31.1 mph 0.02 in   Overcast
12:54 PM 78.1 °F - 73.0 °F 84% 29.91 in 9.0 mi NE 23.0 mph 29.9 mph 0.02 in   Overcast
1:54 PM 80.1 °F 84.5 °F 73.9 °F 81% 29.90 in 10.0 mi NE 20.7 mph 29.9 mph 0.00 in   Overcast
2:54 PM 80.1 °F 83.6 °F 71.1 °F 74% 29.88 in 10.0 mi NE 20.7 mph 32.2 mph N/A   Overcast
3:54 PM 80.1 °F 83.8 °F 72.0 °F 76% 29.88 in 10.0 mi NE 19.6 mph 27.6 mph N/A   Overcast
4:54 PM 78.1 °F - 72.0 °F 81% 29.89 in 10.0 mi NE 16.1 mph 26.5 mph 0.00 in   Overcast
5:54 PM 75.0 °F - 73.0 °F 94% 29.91 in 4.0 mi NE 19.6 mph 29.9 mph 0.00 in Rain Light Rain
5:56 PM 75.2 °F - 73.4 °F 94% 29.85 in 3.0 mi NE 18.4 mph 29.9 mph 0.00 in Rain Light Rain
6:54 PM 75.9 °F - 73.0 °F 91% 29.92 in 5.0 mi NE 21.9 mph 31.1 mph 0.00 in Rain Light Rain
6:59 PM 75.2 °F - 73.4 °F 94% 29.86 in 3.0 mi NE 18.4 mph 31.1 mph 0.01 in Rain Light Rain
7:28 PM 75.2 °F - 73.4 °F 94% 29.87 in 7.0 mi NE 19.6 mph - 0.01 in Rain Light Rain
7:54 PM 75.0 °F - 73.0 °F 94% 29.94 in 10.0 mi NE 19.6 mph - 0.01 in   Overcast
8:45 PM 75.2 °F - 73.4 °F 94% 29.89 in 8.0 mi NE 17.3 mph 25.3 mph N/A   Overcast
8:54 PM 75.9 °F - 73.9 °F 94% 29.95 in 10.0 mi NE 16.1 mph - N/A   Overcast
9:03 PM 77.0 °F - 73.4 °F 89% 29.89 in 9.0 mi NE 21.9 mph 27.6 mph N/A   Overcast
9:54 PM 75.9 °F - 73.0 °F 91% 29.95 in 9.0 mi NE 15.0 mph 24.2 mph 0.01 in Rain Light Rain
10:54 PM 75.9 °F - 73.9 °F 94% 29.95 in 7.0 mi NE 16.1 mph - 0.01 in   Overcast
11:20 PM 75.2 °F - 75.2 °F 100% 29.88 in 4.0 mi NE 17.3 mph 27.6 mph 0.01 in Rain Light Rain
11:54 PM 75.9 °F - 75.0 °F 97% 29.95 in 3.0 mi NE 17.3 mph 27.6 mph 0.01 in Rain Light Rain